Погода в Кировском

Россия / Курская область     51°17′57″N   36°40′27″E
темп.,
°C
ветер,
м/с
пор.,
м/с
влажн.,
%
обл.,
%
осадки,
мм/ч
давл.,
гПа
погр.,
м
7 марта, вс
вс700:00−7зсз479176 0.0 1021251
03:00−8з489453 0.0 1021215
06:00−8зюз5109591 0.0 1019281
09:00−6зюз8147884 0.0 1017704
12:00−3юз101670100 0.0 10141015
15:000зюз111867100 0.0 10101353
18:00−2зюз111889100 0.1 10071183
21:00−1зюз101892100 0.3 10061071
8 марта, пн
пн800:00−1зюз81488100 0.2 1006926
03:00−2зюз71392100 0.6 1006765
06:00−2зюз71395100 0.8 1005692
09:00−2з61093100 1.5 1005730
12:00−1з7117798 0.3 10061332
15:00−2зсз797499 0.6 10071266
18:00−4з498399 0.1 1008425
21:00−5з41088100 0.1 1010539
9 марта, вт
вт900:00−7зсз489599 0.0 1012248
03:00−9сз479258 0.0 1013225
06:00−10сз479465 0.1 1014256
09:00−10зсз359276 0.1 1016261
12:00−7сз4686100 0.1 1017593
15:00−6сз5681100 0.2 1018888
18:00−8сз4787100 0.1 1019736
21:00−11ссз369393 0.1 1022196
10 марта, ср
ср1000:00−12сз24940 0.0 1023110
03:00−13сз239529 0.0 1024100
06:00−14ссз239517 0.0 102593
09:00−13с238917 0.0 1026178
12:00−10с227972 0.0 1026362
15:00−8св217479 0.0 1026466
18:00−9всв2281100 0.0 1026224
21:00−10в238897 0.0 102768
11 марта, чт
чт1100:00−10в238593 0.0 102873
03:00−11вюв238892 0.0 102878
06:00−11юв338667 0.0 102875
09:00−9ююв467647 0.0 1029271
12:00−5ю46660 0.0 1029611
15:00−3ю46580 0.0 10281025
18:00−5ю34660 0.0 102674
21:00−6ююв511650 0.0 1026229